STARLINK-1497 (45781 NORAD) Tracking and Keplerian Element Data

This shows tracking and keplerian element data for the satellite.

Feedback or suggestion? Click here.




ElementValue
Catalog45781
NameSTARLINK-1497
Epoch Orbit177
Epoch Day218.91667824
Epoch Year2020
RAAN33.9221
Inclination53.0008
Eccentricity0.0001378
Argument of Perigee50.4776
Mean Anonmoly141.8741
Mean Motion15.62687824
Decay Rate0.00068617
L11 45781U 20038BD 20218.91667824 .00068617 00000-0 75078-3 0 9992
L22 45781 53.0008 33.9221 0001378 50.4776 141.8741 15.62687824 1771

Live tracking and technical data element details for STARLINK-1497 (NORAD 45781). STARLINK-1497 can be tracked NOW for your location showing map with azimuth and elevation plus other details from your city location.

Track the satellite on the map from your city or location and see movement details for azimuth, elevation, latitude, longitude, range, height, and movement on the map or in text.







IsCatalogInMostPopularTable: catalog: 45781, numindb: 17
Update: records affected: 1



GetName: 45781 STARLINK-1497

Hit Count: updated at: Sat, 08 Aug 2020 00:43:24 GMT